Location: Unspecified
(32.8157°N, 0.0000°E)
Time: 11:33:13
(UTC+00:00)

Hubble Space Telescope - Visible Passes

Search period start: 25 June 2019 00:00
Search period end: 05 July 2019 00:00
Orbit: 536 x 540 km, 28.5° (Epoch: 25 June)

Date Brightness Start Highest point End Pass type
(mag) Time Alt. Az. Time Alt. Az. Time Alt. Az.
25 Jun 2.4 19:38:02 10° SSW 19:40:42 17° SSE 19:43:23 10° ESE visible
25 Jun 2.4 21:17:37 10° WSW 21:19:24 22° SW 21:19:24 22° SW visible
26 Jun 1.6 21:06:59 10° WSW 21:09:59 35° SSW 21:09:59 35° SSW visible
27 Jun 1.1 20:56:22 10° WSW 21:00:19 43° S 21:00:21 43° S visible
28 Jun 1.1 20:45:48 10° WSW 20:49:46 45° S 20:50:33 39° SE visible
29 Jun 1.1 20:35:14 10° WSW 20:39:12 46° S 20:40:37 32° SE visible
30 Jun 1.2 20:24:40 10° WSW 20:28:39 45° S 20:30:37 25° ESE visible
30 Jun 3.6 22:05:56 10° WSW 22:05:57 10° WSW 22:05:57 10° WSW visible
01 Jul 1.2 20:14:08 10° WSW 20:18:05 44° S 20:20:32 20° ESE visible
01 Jul 3.4 21:55:31 10° WSW 21:55:53 12° WSW 21:55:53 12° WSW visible
02 Jul 1.4 20:03:37 10° WSW 20:07:32 41° S 20:10:27 16° ESE visible
02 Jul 3.3 21:45:11 10° WSW 21:45:46 13° WSW 21:45:46 13° WSW visible
03 Jul 1.5 19:53:06 10° WSW 19:56:57 38° S 20:00:19 13° SE visible
03 Jul 3.2 21:34:55 10° WSW 21:35:38 13° SW 21:35:38 13° SW visible
04 Jul 1.7 19:42:37 10° WSW 19:46:23 34° SSW 19:50:08 10° SE visible
04 Jul 3.2 21:24:50 10° WSW 21:25:31 12° SW 21:25:31 12° SW visible
